Stuttgart, AR

1:33 PM CDT on May 24, 2018 (GMT -0500)
Stuttgart Municipal

Weather History for KSGT - July, 2013

Change the Weather History Date:

Saturday, July 27, 2013

  Actual Average Record
Temperature  
Mean Temperature 75 °F -  
Max Temperature 84 °F 89 °F 98 °F (1997)
Min Temperature 66 °F 71 °F 62 °F (2004)
Cooling Degree Days 10    
Growing Degree Days 25 (Base 50)    
Moisture  
Dew Point 64 °F    
Average Humidity 70    
Maximum Humidity 88    
Minimum Humidity 51    
Precipitation  
Precipitation 0.01 in - - ()
Sea Level Pressure  
Sea Level Pressure 29.98 in    
Wind  
Wind Speed 8 mph (NNE)    
Max Wind Speed 14 mph    
Max Gust Speed -    
Visibility 10 miles    
Events      
Averages and records for this station are not official NWS values.
T = Trace of Precipitation, MM = Missing Value Source: NWS Daily Summary

Daily Weather History Graph

Daily Weather History Graph

Search for Another Location

Airport or City:

Astronomy

Jul. 27, 2013 Rise Set
Actual Time 6:13 AM CDT 8:12 PM CDT
Civil Twilight 5:45 AM CDT 8:40 PM CDT
Nautical Twilight 5:11 AM CDT 9:13 PM CDT
Astronomical Twilight 4:34 AM CDT 9:50 PM CDT
Moon 11:17 PM CDT (7/27) 11:36 AM CDT (7/27)
Length of Visible Light 14h 54m
Length of Day
13h 59m
Waning Gibbous, 70% of the Moon is Illuminated
Jul 27
Waning Gibbous
Jul 29
Last Quarter
Aug 6
New
Aug 14
First Quarter
Aug 20
Full

Hourly Weather History & Observations

Time (CDT) Temp. Heat Index Dew Point Humidity Pressure Visibility Wind Dir Wind Speed Gust Speed Precip Events Conditions
12:15 AM 69.8 °F - 66.2 °F 88% 30.01 in 10.0 mi NNE 4.6 mph - N/A   Overcast
12:35 AM 71.6 °F - 66.2 °F 83% 30.00 in 10.0 mi NE 8.1 mph - N/A   Overcast
12:55 AM 71.6 °F - 66.2 °F 83% 29.99 in 10.0 mi NE 8.1 mph - N/A   Overcast
1:15 AM 71.6 °F - 66.2 °F 83% 29.99 in 10.0 mi NNE 8.1 mph - N/A   Overcast
1:35 AM 69.8 °F - 64.4 °F 83% 29.98 in 10.0 mi NNE 8.1 mph - N/A   Overcast
1:55 AM 69.8 °F - 66.2 °F 88% 29.98 in 10.0 mi North 8.1 mph - N/A   Overcast
2:15 AM 69.8 °F - 64.4 °F 83% 29.98 in 10.0 mi NNE 10.4 mph - N/A   Overcast
2:35 AM 69.8 °F - 62.6 °F 78% 29.98 in 10.0 mi NE 11.5 mph - N/A   Overcast
2:55 AM 69.8 °F - 62.6 °F 78% 29.98 in 10.0 mi NNE 9.2 mph - N/A   Overcast
3:15 AM 69.8 °F - 62.6 °F 78% 29.98 in 10.0 mi North 9.2 mph - N/A   Overcast
3:35 AM 69.8 °F - 62.6 °F 78% 29.97 in 10.0 mi NNE 13.8 mph - N/A   Overcast
3:56 AM 68.0 °F - 62.6 °F 83% 29.97 in 10.0 mi NNE 11.5 mph - N/A   Overcast
4:15 AM 69.8 °F - 62.6 °F 78% 29.97 in 10.0 mi NNE 10.4 mph - N/A   Overcast
4:35 AM 69.8 °F - 62.6 °F 78% 29.97 in 10.0 mi NNE 11.5 mph - N/A   Overcast
4:55 AM 69.8 °F - 62.6 °F 78% 29.98 in 10.0 mi North 11.5 mph - N/A   Overcast
5:15 AM 68.0 °F - 60.8 °F 78% 29.98 in 10.0 mi NNE 11.5 mph - N/A   Overcast
5:35 AM 68.0 °F - 60.8 °F 78% 29.99 in 10.0 mi NNE 12.7 mph - N/A   Overcast
5:55 AM 68.0 °F - 60.8 °F 78% 29.99 in 10.0 mi NNE 12.7 mph - N/A   Overcast
6:15 AM 66.2 °F - 62.6 °F 88% 29.99 in 10.0 mi NNE 11.5 mph - N/A   Overcast
6:35 AM 66.2 °F - 62.6 °F 88% 30.00 in 10.0 mi NNE 10.4 mph - N/A   Overcast
6:55 AM 66.2 °F - 62.6 °F 88% 30.00 in 10.0 mi NNE 10.4 mph - N/A   Overcast
7:16 AM 66.2 °F - 60.8 °F 83% 30.01 in 10.0 mi North 11.5 mph - N/A   Overcast
7:35 AM 66.2 °F - 60.8 °F 83% 30.01 in 10.0 mi North 12.7 mph - N/A   Overcast
8:15 AM 66.2 °F - 62.6 °F 88% 30.01 in 10.0 mi NNE 8.1 mph - N/A   Overcast
8:35 AM 66.2 °F - 62.6 °F 88% 30.01 in 10.0 mi NNE 12.7 mph - N/A   Overcast
8:55 AM 66.2 °F - 62.6 °F 88% 30.01 in 10.0 mi NE 9.2 mph - 0.01 in   Mostly Cloudy
9:15 AM 66.2 °F - 62.6 °F 88% 30.01 in 10.0 mi NE 6.9 mph - N/A   Overcast
9:35 AM 69.8 °F - 62.6 °F 78% 30.01 in 10.0 mi NNE 9.2 mph - N/A   Overcast
9:55 AM 69.8 °F - 62.6 °F 78% 30.01 in 10.0 mi NNE 9.2 mph - N/A   Overcast
10:15 AM 71.6 °F - 64.4 °F 78% 30.01 in 10.0 mi North 10.4 mph - N/A   Overcast
10:35 AM 73.4 °F - 64.4 °F 73% 30.01 in 10.0 mi NNE 8.1 mph - N/A   Overcast
10:55 AM 75.2 °F - 64.4 °F 69% 30.01 in 10.0 mi NNE 8.1 mph - N/A   Overcast
11:15 AM 75.2 °F - 64.4 °F 69% 30.01 in 10.0 mi NNE 8.1 mph - N/A   Overcast
11:35 AM 77.0 °F - 64.4 °F 65% 30.01 in 10.0 mi NE 8.1 mph - N/A   Mostly Cloudy
11:55 AM 77.0 °F - 64.4 °F 65% 30.00 in 10.0 mi ENE 6.9 mph - N/A   Clear
12:15 PM 78.8 °F - 66.2 °F 65% 30.00 in 10.0 mi NNE 8.1 mph - N/A   Partly Cloudy
12:35 PM 78.8 °F - 66.2 °F 65% 30.00 in 10.0 mi NE 6.9 mph - N/A   Partly Cloudy
12:55 PM 80.6 °F 82.7 °F 66.2 °F 61% 29.99 in 10.0 mi North 6.9 mph - N/A   Scattered Clouds
1:15 PM 80.6 °F 82.3 °F 64.4 °F 58% 29.99 in 10.0 mi NNE 4.6 mph - N/A   Partly Cloudy
1:35 PM 82.4 °F 84.6 °F 66.2 °F 58% 29.99 in 10.0 mi NNE 8.1 mph - N/A   Mostly Cloudy
1:55 PM 80.6 °F 82.7 °F 66.2 °F 61% 29.98 in 10.0 mi NNW 5.8 mph - N/A   Overcast
2:15 PM 80.6 °F 82.7 °F 66.2 °F 61% 29.97 in 10.0 mi North 8.1 mph - N/A   Mostly Cloudy
2:35 PM 82.4 °F 84.6 °F 66.2 °F 58% 29.97 in 10.0 mi North 8.1 mph - N/A   Scattered Clouds
2:55 PM 82.4 °F 84.6 °F 66.2 °F 58% 29.96 in 10.0 mi NE 6.9 mph - N/A   Partly Cloudy
3:15 PM 82.4 °F 83.9 °F 64.4 °F 54% 29.96 in 10.0 mi North 8.1 mph - N/A   Clear
3:35 PM 82.4 °F 83.9 °F 64.4 °F 54% 29.96 in 10.0 mi North 4.6 mph - N/A   Clear
3:55 PM 84.2 °F 85.6 °F 64.4 °F 51% 29.96 in 10.0 mi North 4.6 mph - N/A   Partly Cloudy
4:15 PM 84.2 °F 85.6 °F 64.4 °F 51% 29.95 in 10.0 mi NNE 6.9 mph - N/A   Clear
4:35 PM 82.4 °F 83.9 °F 64.4 °F 54% 29.95 in 10.0 mi North 4.6 mph - N/A   Clear
4:55 PM 82.4 °F 83.9 °F 64.4 °F 54% 29.94 in 10.0 mi North 4.6 mph - N/A   Clear
5:15 PM 84.2 °F 85.6 °F 64.4 °F 51% 29.94 in 10.0 mi North 6.9 mph - N/A   Clear
5:35 PM 84.2 °F 85.6 °F 64.4 °F 51% 29.94 in 10.0 mi NNW 5.8 mph - N/A   Clear
5:55 PM 84.2 °F 85.6 °F 64.4 °F 51% 29.93 in 10.0 mi North 4.6 mph - N/A   Clear
6:15 PM 82.4 °F 84.6 °F 66.2 °F 58% 29.93 in 10.0 mi Calm Calm - N/A   Clear
6:35 PM 82.4 °F 84.6 °F 66.2 °F 58% 29.93 in 10.0 mi North 4.6 mph - N/A   Clear
6:55 PM 82.4 °F 83.9 °F 64.4 °F 54% 29.93 in 10.0 mi North 3.5 mph - N/A   Clear
7:16 PM 82.4 °F 83.9 °F 64.4 °F 54% 29.94 in 10.0 mi Calm Calm - N/A   Clear
7:35 PM 82.4 °F 83.9 °F 64.4 °F 54% 29.94 in 10.0 mi Calm Calm - N/A   Clear
7:55 PM 80.6 °F 83.2 °F 68.0 °F 65% 29.94 in 10.0 mi Calm Calm - N/A   Clear
8:15 PM 80.6 °F 82.7 °F 66.2 °F 61% 29.94 in 10.0 mi Calm Calm - N/A   Clear
8:35 PM 80.6 °F 82.7 °F 66.2 °F 61% 29.95 in 10.0 mi SE 3.5 mph - N/A   Clear
8:55 PM 78.8 °F - 66.2 °F 65% 29.95 in 10.0 mi SE 3.5 mph - N/A   Clear
9:15 PM 78.8 °F - 66.2 °F 65% 29.96 in 10.0 mi SE 3.5 mph - N/A   Clear
9:35 PM 77.0 °F - 66.2 °F 69% 29.96 in 10.0 mi Calm Calm - N/A   Clear
9:55 PM 77.0 °F - 66.2 °F 69% 29.96 in 10.0 mi SE 3.5 mph - N/A   Clear
10:15 PM 77.0 °F - 66.2 °F 69% 29.96 in 10.0 mi SE 4.6 mph - N/A   Clear
10:35 PM 75.2 °F - 66.2 °F 73% 29.96 in 10.0 mi SSE 4.6 mph - N/A   Clear
10:55 PM 75.2 °F - 66.2 °F 73% 29.96 in 10.0 mi SSE 5.8 mph - N/A   Clear
11:15 PM 75.2 °F - 66.2 °F 73% 29.97 in 10.0 mi Calm Calm - N/A   Clear
11:35 PM 73.4 °F - 66.2 °F 78% 29.96 in 10.0 mi SSE 3.5 mph - N/A   Clear
11:55 PM 73.4 °F - 66.2 °F 78% 29.96 in 10.0 mi SSE 3.5 mph - N/A   Clear